PROPCUBE 1 (FLORA)

Last updated on Fri Jul 10 2026 00:03:49 GMT+0000 (Coordinated Universal Time)

1 40976U 15058N 26190.08714770 .00001266 00000+0 12909-3 0 9995 2 40976 64.7731 227.3576 0132046 52.4182 308.8834 14.89310116119522
UTC large
Height (km)
Speed (km/s)
/
Latitude / Longitude
Inclination (degrees)
Orbital Period (minutes)
Azimuth
Elevation
Range (km)
Doppler Factor

Next 0 passes for location: London (51.5072 / 0.1276)

No passes found over London.
PROPCUBE 1 (FLORA)